Find NovaSAR-S

NORAD ID: 43619 Int'l Des: 2018-071 Owner: SSTLA Country: UK operational
LEOCIRCULARRETROGRADESSO

Live Position

Loading 3D Globe...

About NovaSAR-S

Description loading...

Upcoming Passes

Passes for default location (London). Set your location on the main map for personalized predictions.

Altitude History

Loading altitude history...

Two-Line Element Set

1 43619U 18071B 26109.93816751 .00001345 00000-0 12419-3 0 9991
2 43619 97.5150 344.6235 0001565 83.8850 276.2550 14.96184671414225
Epoch: Apr 19, 2026 • Age: 5 hours

Current Status

Altitude 588.1 km
Velocity 7.56 km/s
Sub-Earth Point -24.12°S, 91.6°E
Launch Date Sep 16, 2018
Age 7.5 years
Type other

Technical Details

Classification Payload
Mass 445.00 kg
Dry Mass 400.00 kg
Total Mass 445.00 kg
Length 3.00 m
Diameter 1.00 m
Span 3.00 m
Shape Box tri
Manufacturer SSTLA
Bus Type NovaSAR-S
Phase Status In Orbit
Owner/State SSTLA/UK

Most Searched